Time,TemperatureF,DewpointF,PressureIn,WindDirection,WindDirectionDegrees,WindSpeedMPH,WindSpeedGustMPH,Humidity,HourlyPrecipIn,Conditions,Clouds,dailyrainin,SoftwareType,DateUTC
2013-07-08 00:02:00,67.0,67.0,30.01,South,175,0.0,12.0,99,0.00,,,0.00,,2013-07-08 04:02:00,
2013-07-08 00:12:00,67.0,67.0,30.01,South,175,0.0,12.0,99,0.00,,,0.00,,2013-07-08 04:12:00,
2013-07-08 00:22:00,67.0,67.0,30.01,South,175,0.0,12.0,99,0.00,,,0.00,,2013-07-08 04:22:00,
2013-07-08 01:01:00,66.0,66.0,30.01,South,175,0.0,12.0,99,0.00,,,0.00,,2013-07-08 05:01:00,
2013-07-08 01:12:00,66.0,66.0,30.01,South,175,0.0,12.0,99,0.00,,,0.00,,2013-07-08 05:12:00,
2013-07-08 01:22:00,67.0,67.0,30.02,South,175,0.0,12.0,99,0.00,,,0.00,,2013-07-08 05:22:00,
2013-07-08 01:33:00,67.0,67.0,30.02,South,175,0.0,12.0,99,0.00,,,0.00,,2013-07-08 05:33:00,
2013-07-08 01:43:00,67.0,67.0,30.02,South,175,0.0,12.0,99,0.00,,,0.00,,2013-07-08 05:43:00,
2013-07-08 01:53:00,67.0,67.0,30.02,South,175,0.0,12.0,99,0.00,,,0.00,,2013-07-08 05:53:00,
2013-07-08 02:01:00,67.0,67.0,30.02,South,175,0.0,12.0,99,0.00,,,0.00,,2013-07-08 06:01:00,
2013-07-08 02:22:00,67.0,67.0,30.02,South,175,0.0,12.0,99,0.00,,,0.00,,2013-07-08 06:22:00,
2013-07-08 02:34:00,67.0,67.0,30.02,South,175,0.0,12.0,99,0.00,,,0.00,,2013-07-08 06:34:00,
2013-07-08 02:43:00,67.0,67.0,30.02,South,175,0.0,12.0,99,0.00,,,0.00,,2013-07-08 06:43:00,
2013-07-08 02:53:00,67.0,67.0,30.02,South,175,0.0,12.0,99,0.00,,,0.00,,2013-07-08 06:53:00,
2013-07-08 03:02:00,67.0,67.0,30.02,South,175,0.0,12.0,99,0.00,,,0.00,,2013-07-08 07:02:00,
2013-07-08 03:12:00,67.0,67.0,30.02,South,175,0.0,12.0,99,0.00,,,0.00,,2013-07-08 07:12:00,
2013-07-08 03:22:00,67.0,67.0,30.01,South,175,0.0,12.0,99,0.00,,,0.00,,2013-07-08 07:22:00,
2013-07-08 03:34:00,67.0,67.0,30.01,South,175,0.0,12.0,99,0.00,,,0.00,,2013-07-08 07:34:00,
2013-07-08 05:11:00,66.0,66.0,30.01,South,175,0.0,12.0,99,0.00,,,0.00,,2013-07-08 09:11:00,
2013-07-08 05:53:00,68.0,68.0,30.02,SSW,193,0.0,12.0,99,0.00,,,0.00,,2013-07-08 09:53:00,
2013-07-08 06:02:00,68.0,68.0,30.02,SSW,193,0.0,12.0,99,0.00,,,0.00,,2013-07-08 10:02:00,
2013-07-08 06:11:00,68.0,68.0,30.02,SSW,193,0.0,12.0,99,0.00,,,0.00,,2013-07-08 10:11:00,
2013-07-08 06:22:00,69.0,69.0,30.03,South,185,0.0,12.0,99,0.00,,,0.00,,2013-07-08 10:22:00,
2013-07-08 06:34:00,69.0,69.0,30.03,South,185,0.0,12.0,99,0.00,,,0.00,,2013-07-08 10:34:00,
2013-07-08 06:43:00,69.0,69.0,30.03,South,185,0.0,12.0,99,0.00,,,0.00,,2013-07-08 10:43:00,
2013-07-08 06:53:00,69.0,69.0,30.03,South,185,0.0,12.0,99,0.00,,,0.00,,2013-07-08 10:53:00,
2013-07-08 07:02:00,69.0,69.0,30.03,South,185,0.0,12.0,99,0.00,,,0.00,,2013-07-08 11:02:00,
2013-07-08 07:33:00,72.0,72.0,30.04,NNE,30,1.0,12.0,99,0.00,,,0.00,,2013-07-08 11:33:00,
2013-07-08 07:43:00,72.0,72.0,30.04,NNE,30,1.0,12.0,99,0.00,,,0.00,,2013-07-08 11:43:00,
2013-07-08 07:53:00,73.0,72.0,30.04,NNW,329,0.0,12.0,98,0.00,,,0.00,,2013-07-08 11:53:00,
2013-07-08 08:02:00,73.0,72.0,30.04,NNW,329,0.0,12.0,98,0.00,,,0.00,,2013-07-08 12:02:00,
2013-07-08 08:12:00,73.0,72.0,30.04,NNW,329,0.0,12.0,98,0.00,,,0.00,,2013-07-08 12:12:00,
2013-07-08 08:22:00,73.0,72.0,30.04,NNW,329,0.0,12.0,98,0.00,,,0.00,,2013-07-08 12:22:00,
2013-07-08 08:34:00,71.0,70.0,30.04,WNW,291,2.0,12.0,96,0.00,,,0.00,,2013-07-08 12:34:00,
2013-07-08 08:43:00,71.0,70.0,30.04,WNW,291,2.0,12.0,96,0.00,,,0.00,,2013-07-08 12:43:00,
2013-07-08 08:53:00,71.0,69.0,30.05,NE,53,3.0,12.0,95,0.00,,,0.00,,2013-07-08 12:53:00,
2013-07-08 09:02:00,71.0,69.0,30.05,NE,53,3.0,12.0,95,0.00,,,0.00,,2013-07-08 13:02:00,
2013-07-08 09:11:00,71.0,69.0,30.05,NE,53,3.0,12.0,95,0.00,,,0.00,,2013-07-08 13:11:00,
2013-07-08 09:22:00,71.0,69.0,30.05,NE,53,3.0,12.0,95,0.00,,,0.00,,2013-07-08 13:22:00,
2013-07-08 09:33:00,73.0,71.0,30.05,WNW,292,0.0,12.0,95,0.00,,,0.00,,2013-07-08 13:33:00,
2013-07-08 09:43:00,73.0,71.0,30.05,WNW,292,0.0,12.0,95,0.00,,,0.00,,2013-07-08 13:43:00,
2013-07-08 09:53:00,73.0,71.0,30.05,WNW,292,0.0,12.0,95,0.00,,,0.00,,2013-07-08 13:53:00,
2013-07-08 10:02:00,75.0,74.0,30.05,WNW,282,3.0,12.0,96,0.00,,,0.00,,2013-07-08 14:02:00,
2013-07-08 10:12:00,75.0,74.0,30.05,WNW,282,3.0,12.0,96,0.00,,,0.00,,2013-07-08 14:12:00,
2013-07-08 10:34:00,77.0,74.0,30.05,NW,305,4.0,12.0,92,0.00,,,0.00,,2013-07-08 14:34:00,
2013-07-08 10:43:00,77.0,74.0,30.05,NW,305,4.0,12.0,92,0.00,,,0.00,,2013-07-08 14:43:00,
2013-07-08 10:53:00,77.0,74.0,30.05,NW,305,4.0,12.0,92,0.00,,,0.00,,2013-07-08 14:53:00,
2013-07-08 11:02:00,77.0,74.0,30.06,East,79,1.0,12.0,91,0.00,,,0.00,,2013-07-08 15:02:00,
2013-07-08 11:12:00,77.0,74.0,30.06,East,79,1.0,12.0,91,0.00,,,0.00,,2013-07-08 15:12:00,
2013-07-08 11:22:00,77.0,74.0,30.06,East,79,1.0,12.0,91,0.00,,,0.00,,2013-07-08 15:22:00,
2013-07-08 11:33:00,79.0,76.0,30.06,South,179,0.0,12.0,91,0.00,,,0.00,,2013-07-08 15:33:00,
2013-07-08 11:43:00,79.0,76.0,30.06,South,179,0.0,12.0,91,0.00,,,0.00,,2013-07-08 15:43:00,
2013-07-08 11:53:00,79.0,76.0,30.06,South,179,0.0,12.0,91,0.00,,,0.00,,2013-07-08 15:53:00,
2013-07-08 12:01:00,76.0,73.0,30.06,NNE,20,0.0,12.0,91,0.00,,,0.00,,2013-07-08 16:01:00,
2013-07-08 12:11:00,76.0,73.0,30.06,NNE,20,0.0,12.0,91,0.00,,,0.00,,2013-07-08 16:11:00,
2013-07-08 12:22:00,76.0,73.0,30.06,SSW,207,1.0,12.0,89,0.00,,,0.00,,2013-07-08 16:22:00,
2013-07-08 12:43:00,76.0,73.0,30.06,SSW,207,1.0,12.0,89,0.00,,,0.00,,2013-07-08 16:43:00,
2013-07-08 12:58:00,76.0,73.0,30.06,SSW,207,1.0,12.0,89,0.00,,,0.00,,2013-07-08 16:58:00,
2013-07-08 13:08:00,75.0,72.0,30.06,SSW,193,0.0,12.0,90,0.00,,,0.00,,2013-07-08 17:08:00,
2013-07-08 13:15:00,75.0,72.0,30.06,SSW,193,0.0,12.0,90,0.00,,,0.00,,2013-07-08 17:15:00,
2013-07-08 13:29:00,75.0,72.0,30.06,SSW,193,0.0,12.0,90,0.00,,,0.00,,2013-07-08 17:29:00,
2013-07-08 13:37:00,77.0,73.0,30.06,South,188,1.0,12.0,87,0.00,,,0.00,,2013-07-08 17:37:00,
2013-07-08 13:48:00,77.0,73.0,30.06,South,188,1.0,12.0,87,0.00,,,0.00,,2013-07-08 17:48:00,
2013-07-08 13:56:00,77.0,73.0,30.06,South,188,1.0,12.0,87,0.00,,,0.00,,2013-07-08 17:56:00,
2013-07-08 14:12:00,77.0,72.0,30.06,SSW,207,1.0,12.0,85,0.00,,,0.00,,2013-07-08 18:12:00,
2013-07-08 14:26:00,77.0,72.0,30.06,SSW,207,1.0,12.0,85,0.00,,,0.00,,2013-07-08 18:26:00,
2013-07-08 14:45:00,78.0,71.0,30.06,West,269,3.0,12.0,80,0.00,,,0.00,,2013-07-08 18:45:00,
2013-07-08 14:56:00,78.0,71.0,30.06,West,269,3.0,12.0,80,0.00,,,0.00,,2013-07-08 18:56:00,
2013-07-08 15:14:00,78.0,72.0,30.06,ESE,109,1.0,12.0,82,0.00,,,0.00,,2013-07-08 19:14:00,
2013-07-08 15:40:00,78.0,71.0,30.05,South,189,1.0,12.0,79,0.00,,,0.00,,2013-07-08 19:40:00,
2013-07-08 16:08:00,80.0,72.0,30.05,East,85,2.0,12.0,77,0.00,,,0.00,,2013-07-08 20:08:00,
2013-07-08 16:23:00,80.0,72.0,30.05,East,85,2.0,12.0,77,0.00,,,0.00,,2013-07-08 20:23:00,
2013-07-08 16:46:00,80.0,72.0,30.04,SE,127,1.0,12.0,76,0.00,,,0.00,,2013-07-08 20:46:00,
2013-07-08 17:09:00,80.0,71.0,30.04,WNW,301,2.0,12.0,75,0.00,,,0.00,,2013-07-08 21:09:00,
2013-07-08 17:17:00,80.0,71.0,30.04,WNW,301,2.0,12.0,75,0.00,,,0.00,,2013-07-08 21:17:00,
2013-07-08 17:45:00,80.0,72.0,30.04,SSW,193,1.0,12.0,77,0.00,,,0.00,,2013-07-08 21:45:00,
2013-07-08 17:58:00,80.0,72.0,30.04,SSW,193,1.0,12.0,77,0.00,,,0.00,,2013-07-08 21:58:00,
2013-07-08 18:19:00,76.0,70.0,30.04,West,265,0.0,12.0,81,0.00,,,0.00,,2013-07-08 22:19:00,
2013-07-08 18:27:00,76.0,71.0,30.04,South,185,0.0,12.0,85,0.00,,,0.00,,2013-07-08 22:27:00,
2013-07-08 18:34:00,76.0,71.0,30.04,South,185,0.0,12.0,85,0.00,,,0.00,,2013-07-08 22:34:00,
2013-07-08 18:46:00,76.0,71.0,30.04,South,185,0.0,12.0,85,0.00,,,0.00,,2013-07-08 22:46:00,
2013-07-08 18:57:00,76.0,74.0,30.04,South,186,0.0,12.0,92,0.00,,,0.00,,2013-07-08 22:57:00,
2013-07-08 19:02:00,76.0,74.0,30.04,South,186,0.0,12.0,92,0.00,,,0.00,,2013-07-08 23:02:00,
2013-07-08 19:19:00,76.0,74.0,30.04,South,186,0.0,12.0,92,0.00,,,0.00,,2013-07-08 23:19:00,
2013-07-08 19:25:00,73.0,71.0,30.04,SW,226,0.0,12.0,94,0.00,,,0.00,,2013-07-08 23:25:00,
2013-07-08 19:56:00,75.0,73.0,30.05,WNW,302,0.0,12.0,94,0.00,,,0.00,,2013-07-08 23:56:00,
2013-07-08 19:58:00,74.0,73.0,30.06,South,185,0.0,12.0,96,0.00,,,0.00,,2013-07-08 23:58:00,
2013-07-08 20:02:00,75.0,73.0,30.05,WNW,302,0.0,12.0,94,0.00,,,0.00,,2013-07-09 00:02:00,
2013-07-08 20:20:00,75.0,73.0,30.05,WNW,302,0.0,12.0,94,0.00,,,0.00,,2013-07-09 00:20:00,
2013-07-08 20:26:00,74.0,73.0,30.06,South,185,0.0,12.0,96,0.00,,,0.00,,2013-07-09 00:26:00,
2013-07-08 20:44:00,74.0,73.0,30.06,South,185,0.0,12.0,96,0.00,,,0.00,,2013-07-09 00:44:00,
2013-07-08 21:36:00,71.0,71.0,30.08,SSE,157,0.0,12.0,99,0.00,,,0.00,,2013-07-09 01:36:00,
2013-07-08 21:57:00,71.0,71.0,30.08,SSE,157,0.0,12.0,99,0.00,,,0.00,,2013-07-09 01:57:00,
2013-07-08 22:12:00,69.0,69.0,30.09,SSE,151,0.0,12.0,99,0.00,,,0.00,,2013-07-09 02:12:00,
2013-07-08 23:12:00,72.0,72.0,30.10,South,182,0.0,12.0,99,0.00,,,0.00,,2013-07-09 03:12:00,
2013-07-08 23:25:00,71.0,71.0,30.10,South,182,0.0,12.0,99,0.00,,,0.00,,2013-07-09 03:25:00,